User: anonymous
Location: Ostrava
(49.8330°N, 18.2830°E)
Time: 17:53:20
(UTC+02:00)
Language:

Tiros 2 - Orbit

View from above orbital plane
View from above orbital plane
View from above satellite
View from above satellite

Ground track
Ground track

The orbit data is extracted from the following two-line orbital elements,

1 00063U 60016A   14110.17267562  .00331901  53183-4  89733-3 0  3555
2 00063 048.5001 076.3632 0002940 170.9180 189.1835 15.93671677911858
Epoch (UTC): 20 April 2014 04:08:39
Eccentricity: 0.0002940
inclination: 48.5001°
perigee height: 290 km
apogee height: 294 km
right ascension of ascending node: 76.3632°
argument of perigee: 170.9180°
revolutions per day: 15.93671677
mean anomaly at epoch: 189.1835°
orbit number at epoch: 91185

The dashed part of the orbit path shows where the satellite is in the earth's shadow,  

DLR